Regional Weather Roundup
Issued by NWS

Home | Current Version | Previous Version | Text Only | Print | Product List | Glossary On
Versions: 1 2 3 4 5 6 7 8 9 10 11 12 13 14 15 16 17 18 19 20 21 22 23 24 25 26 27 28 29 30 31 32 33 34 35 36 37 38 39 40 41 42 43 44 45 46 47 48 49 50
000
ASUS45 KBOU 180310
RWRCO

WEATHER ROUNDUP FOR COLORADO
NATIONAL WEATHER SERVICE DENVER/BOULDER CO
800 PM MST SAT FEB 17 2018

NOTE: "FAIR" INDICATES FEW OR NO CLOUDS BELOW 12000 FEET WITH NO
SIGNIFICANT WEATHER AND/OR OBSTRUCTIONS TO VISIBILITY.

COZ001>005-013-030-031-180400-
...NORTHWEST COLORADO...

CITY           SKY/WX    TMP DP  RH WIND       PRES   REMARKS
CRAIG          FAIR      29  13  51 CALM      29.96F
HAYDEN         FAIR      28  15  58 E9        29.98F WCI  19
MEEKER         FAIR      38  14  37 W6        30.01F
RANGELY        FAIR      39  11  30 SW8       29.97F
RABBIT EARS PA FAIR      19   9  63 W10G17    29.99F WCI   8
STEAMBOAT SPGS FAIR      26  13  58 E8        29.99F WCI  17
WALDEN         FAIR      30   1  29 S17G23    29.96F WCI  18
$$

COZ006>008-011-180400-
...WEST CENTRAL VALLEYS...

CITY           SKY/WX    TMP DP  RH WIND       PRES   REMARKS
GRAND JUNCTION FAIR      32  25  75 CALM      30.04F
MONTROSE       FAIR      34  19  54 SE6       30.08S WCI  29
EAGLE          FAIR      31  17  56 SE6       30.06S WCI  25
RIFLE          FAIR      30  20  66 SE6       30.05S WCI  24
DELTA          FAIR      40  21  47 CALM      30.06F
NUCLA          FAIR      43  14  31 S3        30.13S
$$

COZ017>023-064>068-180400-
...SOUTHWEST COLORADO...

CITY           SKY/WX    TMP DP  RH WIND       PRES   REMARKS
DURANGO        FAIR      34  16  47 N5        30.16S WCI  30
CORTEZ         FAIR      30  16  56 NE8       30.14S WCI  22
PAGOSA SPRINGS FAIR      31  16  54 CALM      30.20S
TELLURIDE      FAIR      35   3  25 SE6       30.18S WCI  30
WOLF CREEK PAS   N/A     18  18 100 SW24G33   30.23F WCI   0
$$

COZ009-010-012-014-032>034-037-058>063-180400-
...CENTRAL COLORADO...

CITY           SKY/WX    TMP DP  RH WIND       PRES   REMARKS
ASPEN          MOCLDY    25  14  63 S6        30.05F WCI  18
BUENA VISTA    FAIR      37  -2  18 NW17      30.02F
COPPER MTN     LGT SNOW  25   5  42 W32G44    30.04F WCI   7
BERTHOUD PASS  FAIR      14   3  62 NW33G53   29.95F WCI  -8
COTTONWOOD PAS FAIR      37  -9  13 SW14G31   30.05F
GUNNISON       FAIR      31  11  43 NE5       30.11S WCI  26
GRANBY         FAIR      30  10  44 W13G18    29.99F WCI  20
KREMMLING      FAIR      37   7  28 CALM      30.01F
LEADVILLE      FAIR      21   4  47 NE8       30.05S WCI  11
MONARCH PASS   FAIR      19   0  42 W35G41    30.21F WCI  -1
SALIDA         FAIR      44  -3  14 SW21G30   30.11F
SUNLIGHT       FAIR      19   9  63 SW15G26     N/A  WCI   5
WILKERSON PASS FAIR      23   0  36 SW23G32   30.02F WCI   7
$$

COZ069>075-180400-
...SAN LUIS VALLEY/SANGRE DE CRISTO MOUNTAINS...

CITY           SKY/WX    TMP DP  RH WIND       PRES   REMARKS
ALAMOSA        FAIR      34  13  41 S15       30.09S WCI  24
DEL NORTE      FAIR      35  16  46 W5        30.11S WCI  31
LA VETA PASS   FAIR      30   9  40 SW32G54   30.15F WCI  15
SAGUACHE       FAIR      30  -4  22 NW6       30.09S WCI  24
$$

COZ035-036-038>040-180400-
...NORTHERN COLORADO FRONT RANGE...

CITY           SKY/WX    TMP DP  RH WIND       PRES   REMARKS
DENVER INTL AP FAIR      41  16  36 S13       29.86F
AURORA         PTCLDY    44  14  30 S21       29.85F
FRONT RANGE AP PTCLDY    46  16  29 S16G36    29.86F
ERIE MUNI ARPT FAIR      49   2  14 W7        29.90S
BOULDER MUN AP FAIR      48   5  17 SW8       29.85S
CENTENNIAL     FAIR      43  15  32 S21G35    29.85F
BROOMFIELD     PTCLDY    48   3  15 NW5       29.86F
FORT COLLINS   FAIR      51   6  16 SW16      29.82F
LONGMONT       FAIR      53   5  14 SW15G25   29.85F
$$

COZ041-046-047-076>085-087-088-180400-
...PIKES PEAK/PALMER DIVIDE AND SOUTHERN FOOTHILLS...

CITY           SKY/WX    TMP DP  RH WIND       PRES   REMARKS
COLO. SPRINGS  FAIR      39  14  36 SE14      29.94F
A. F. ACADEMY  FAIR      36  11  36 CALM      29.93F
SCHRIEVER AFB  NOT AVBL
CHEYENNE MTN   FAIR      42  10  27 SW10      29.90F
ELLICOTT         N/A    N/A N/A N/A S18       29.92F
FALCON         FAIR      33  10  38 MISG      29.95F
FORT CARSON    FAIR      43  14  30 SW6       29.92F
LIMON          FAIR      34  10  37 SE14      29.93F WCI  25
MONUMENT HILL  FAIR      34  12  40 S14G22    29.94F WCI  24
CANON CITY     CLEAR     39  19  45 W3        29.91F
WALSENBURG     NOT AVBL
TRINIDAD       FAIR      43  16  33 NE10      29.98F
$$

COZ042>045-048>051-090-091-180400-
...NORTHEAST COLORADO...

CITY           SKY/WX    TMP DP  RH WIND       PRES   REMARKS
GREELEY ARPT   FAIR      35  15  44 SE7       29.84F WCI  29
AKRON          FAIR      42  14  32 S23G38    29.88F
BURLINGTON     FAIR      36  12  37 S21G31    29.97F
WRAY           FAIR      37  19  48 S13G22    29.95F
YUMA           NOT AVBL
STERLING       FAIR      36  19  51 S9        29.86F
HOLYOKE        FAIR      37  23  56 S21       29.92S
FORT MORGAN    FAIR      41  11  29 S10       29.87F
$$

COZ086-089-092>099-180400-
...SOUTHEAST COLORADO...

CITY           SKY/WX    TMP DP  RH WIND       PRES   REMARKS
PUEBLO         FAIR      38  19  46 N8        29.89F
LA JUNTA       FAIR      51  13  21 S18G28    29.94F
LAMAR          FAIR      44   9  23 S16       29.97F
SPRINGFIELD      N/A     40  11  30 S20       30.04F
$$



USA.gov is the U.S. government's official web portal to all federal, state and local government web resources and services.